1488092400.28,59248,7.63,73210.8,-2.97,-8.37,-8.45,0,*5B
1488092401.51,59249,7.63,73204.0,-2.97,-8.37,-8.85,0,*56
1488092402.73,59250,7.63,73206.3,-2.99,-8.63,-9.15,0,*59
1488092403.94,59251,7.63,73212.5,-2.99,-9.01,-9.27,0,*5C
1488092405.16,59252,7.63,73208.5,-2.97,-9.27,-9.27,0,*55
1488092406.41,59253,7.63,73214.0,-2.99,-9.45,-9.41,0,*5E
1488092407.63,59254,7.63,73226.5,-2.97,-9.31,-9.27,0,*54
1488092408.87,59255,7.63,73224.3,-2.99,-9.57,-9.15,0,*5A
1488092410.11,59256,7.63,73236.3,-2.97,-9.57,-8.93,0,*58
1488092411.33,59257,7.63,73230.3,-2.97,-9.67,-8.85,0,*5D
1488092412.55,59258,7.63,73206.8,-2.97,-9.71,-9.05,0,*5C
1488092413.77,59259,7.63,73186.5,-2.99,-9.57,-9.05,0,*57
1488092414.99,59260,7.63,73188.3,-2.99,-9.53,-9.01,0,*5D
1488092416.22,59261,7.63,73200.8,-2.99,-9.41,-9.01,0,*5F
1488092417.42,59262,7.63,73194.8,-2.99,-9.05,-8.71,0,*5A
1488092418.62,59263,7.63,73198.0,-2.99,-9.27,-8.85,0,*50
1488092419.85,59264,7.63,73206.3,-2.99,-9.15,-8.71,0,*5D
1488092421.04,59265,7.63,73194.0,-2.99,-9.19,-8.59,0,*5A
1488092422.27,59266,7.63,73206.0,-3.01,-9.23,-8.63,0,*59
1488092423.49,59267,7.63,73190.0,-3.01,-9.31,-8.55,0,*5E
1488092424.76,59268,7.63,73164.0,-3.01,-8.81,-7.99,0,*54
1488092425.99,59269,7.63,73184.5,-3.01,-8.89,-8.17,0,*54
1488092427.21,59270,7.63,73204.0,-3.01,-8.97,-8.25,0,*52
1488092428.44,59271,7.63,73202.0,-2.99,-8.71,-7.77,0,*53
1488092429.68,59272,7.63,73188.3,-2.97,-8.59,-7.69,0,*5B
1488092430.94,59273,7.63,73202.8,-2.97,-8.85,-8.11,0,*5B
1488092432.16,59274,7.63,73204.3,-2.99,-8.71,-7.95,0,*5A
1488092433.37,59275,7.63,73186.5,-2.99,-8.89,-8.25,0,*58
1488092434.57,59276,7.63,73212.5,-2.99,-8.89,-8.25,0,*5B
1488092435.81,59277,7.63,73220.3,-2.97,-8.63,-7.95,0,*54
1488092437.02,59278,7.63,73218.0,-2.99,-8.45,-7.83,0,*56
1488092438.24,59279,7.63,73216.8,-2.99,-8.25,-7.69,0,*55
1488092439.49,59280,7.63,73204.3,-2.97,-8.25,-7.69,0,*5D
1488092440.71,59281,7.63,73208.8,-2.99,-8.45,-7.77,0,*5B
1488092441.94,59282,7.63,73224.3,-2.99,-8.37,-7.77,0,*5D
1488092443.19,59283,7.63,73222.0,-2.97,-8.25,-7.77,0,*51
1488092444.41,59284,7.63,73214.3,-2.99,-8.45,-8.11,0,*51
1488092445.63,59285,7.63,73210.3,-2.97,-8.63,-8.25,0,*5D
1488092446.86,59286,7.63,73226.8,-2.97,-8.71,-8.25,0,*5D
1488092448.09,59287,7.63,73220.8,-2.97,-8.63,-8.37,0,*5C
1488092449.31,59288,7.63,73218.0,-2.97,-8.85,-8.59,0,*53
1488092450.53,59289,7.63,73194.0,-2.97,-9.31,-8.75,0,*52
1488092451.77,59290,7.63,73202.8,-2.97,-9.45,-8.59,0,*57
1488092452.99,59291,7.63,73204.3,-2.99,-9.19,-8.51,0,*59
1488092454.21,59292,7.63,73204.8,-2.97,-9.27,-8.71,0,*5B
1488092455.43,59293,7.63,73210.0,-2.97,-9.27,-8.75,0,*5E
1488092456.66,59294,7.63,73218.8,-2.97,-9.31,-8.89,0,*5D
1488092457.91,59295,7.63,73222.3,-2.97,-9.41,-8.93,0,*50
1488092459.12,59296,7.63,73212.8,-2.95,-9.53,-8.97,0,*56
1488092460.36,59297,7.63,73222.8,-2.95,-9.53,-8.81,0,*50
1488092461.61,59298,7.63,73188.0,-2.97,-9.45,-8.75,0,*51
1488092462.82,59299,7.63,73182.8,-2.97,-9.67,-8.93,0,*58
1488092464.06,59300,7.63,73198.5,-2.97,-9.83,-8.93,0,*53
1488092465.28,59301,7.63,73202.5,-2.97,-9.89,-8.93,0,*58
1488092466.5,59302,7.63,73190.8,-2.97,-10.01,-9.05,0,*6D
1488092467.69,59303,7.63,73168.8,-2.99,-9.89,-8.89,0,*5F
1488092468.91,59304,7.63,73170.5,-2.97,-9.97,-8.85,0,*55
1488092470.15,59305,7.63,73192.5,-2.97,-9.83,-8.85,0,*51
1488092471.37,59306,7.63,73186.3,-2.97,-9.67,-8.93,0,*5F
1488092472.59,59307,7.63,73178.3,-2.97,-9.67,-9.19,0,*5D
1488092473.84,59308,7.63,73184.0,-2.97,-9.75,-9.41,0,*5C
1488092475.07,59309,7.63,73176.0,-2.97,-10.15,-9.75,0,*64
1488092476.27,59310,7.63,73190.8,-2.99,-10.35,-9.75,0,*60
1488092477.48,59311,7.63,73194.0,-2.99,-10.49,-9.67,0,*69
1488092478.7,59312,7.63,73186.8,-2.97,-10.49,-9.67,0,*64
1488092479.95,59313,7.63,73196.0,-2.97,-10.53,-9.57,0,*6D
1488092481.17,59314,7.63,73192.5,-2.95,-10.49,-9.49,0,*6C
1488092482.4,59315,7.63,73204.3,-2.95,-10.57,-9.41,0,*6A
1488092483.63,59316,7.63,73202.0,-2.91,-10.49,-9.41,0,*62
1488092484.83,59317,7.63,73196.5,-2.95,-10.57,-9.23,0,*6C
1488092486.05,59318,7.63,73200.3,-2.95,-10.05,-8.81,0,*6D
1488092487.24,59319,7.63,73190.3,-2.91,-9.97,-8.59,0,*5E
1488092488.42,59320,7.63,73194.3,-2.95,-9.93,-8.55,0,*58
1488092489.62,59321,7.63,73204.5,-2.95,-9.97,-8.45,0,*5C
1488092490.82,59322,7.63,73204.3,-2.91,-9.75,-8.29,0,*5D
1488092492.04,59323,7.63,73200.8,-2.91,-9.53,-8.29,0,*58
1488092493.26,59324,7.63,73200.5,-2.91,-9.61,-8.21,0,*56
1488092494.51,59325,7.63,73206.3,-2.91,-9.61,-8.07,0,*53
1488092495.78,59326,7.63,73196.5,-2.89,-9.61,-7.91,0,*59
1488092497.02,59327,7.63,73196.0,-2.87,-9.57,-7.57,0,*59
1488092498.25,59328,7.63,73200.8,-2.89,-9.31,-7.23,0,*5B
1488092499.46,59329,7.63,73192.5,-2.87,-8.93,-7.11,0,*5C
1488092500.68,59330,7.63,73206.8,-2.87,-8.67,-7.01,0,*5E
1488092501.93,59331,7.63,73202.5,-2.87,-8.81,-6.93,0,*5D
1488092503.13,59332,7.63,73178.8,-2.87,-8.55,-6.89,0,*5C
1488092504.35,59333,7.63,73198.8,-2.87,-8.63,-6.93,0,*53
1488092505.61,59334,7.63,73206.3,-2.85,-9.01,-7.31,0,*5A
1488092506.85,59335,7.63,73186.3,-2.85,-8.59,-7.05,0,*50
1488092508.08,59336,7.63,73202.5,-2.85,-8.25,-6.85,0,*51
1488092509.3,59337,7.63,73198.5,-2.85,-8.25,-6.85,0,*50
1488092510.53,59338,7.63,73194.0,-2.85,-8.25,-6.89,0,*53
1488092511.75,59339,7.63,73188.3,-2.85,-8.33,-6.77,0,*54
1488092512.97,59340,7.63,73184.8,-2.85,-8.25,-6.77,0,*5D
1488092514.17,59341,7.63,73210.8,-2.83,-7.83,-6.51,0,*5D
1488092515.39,59342,7.63,73196.8,-2.83,-7.69,-6.39,0,*54
1488092516.61,59343,7.63,73206.0,-2.83,-7.65,-6.39,0,*59
1488092517.8,59344,7.63,73198.0,-2.83,-7.83,-6.77,0,*5C
1488092519.02,59345,7.63,73218.0,-2.81,-8.17,-7.15,0,*58
1488092520.25,59346,7.63,73224.5,-2.79,-8.25,-7.43,0,*5E
1488092521.46,59347,7.63,73214.5,-2.81,-8.29,-7.53,0,*55
1488092522.68,59348,7.63,73188.5,-2.81,-8.29,-7.49,0,*51
1488092523.92,59349,7.63,73196.5,-2.81,-8.33,-7.27,0,*53
1488092525.18,59350,7.63,73208.3,-2.81,-8.03,-7.01,0,*5C
1488092526.42,59351,7.63,73196.0,-2.81,-8.03,-6.85,0,*50
1488092527.67,59352,7.63,73190.0,-2.81,-8.07,-6.81,0,*53
1488092528.91,59353,7.63,73206.3,-2.81,-7.91,-6.69,0,*54
1488092530.15,59354,7.63,73210.3,-2.81,-7.77,-6.59,0,*58
1488092531.4,59355,7.63,73196.8,-2.81,-7.73,-6.47,0,*52
1488092532.62,59356,7.63,73200.3,-2.81,-7.53,-6.47,0,*53
1488092533.86,59357,7.63,73212.5,-2.81,-7.35,-6.35,0,*57
1488092535.11,59358,7.63,73216.0,-2.81,-7.39,-6.81,0,*5B
1488092536.38,59359,7.63,73210.3,-2.81,-7.73,-7.27,0,*59
1488092537.62,59360,7.63,73212.0,-2.81,-7.95,-7.53,0,*58
1488092538.89,59361,7.63,73214.5,-2.81,-7.95,-7.65,0,*5C
1488092540.13,59362,7.63,73216.5,-2.81,-8.45,-8.03,0,*52
1488092541.32,59363,7.63,73202.0,-2.83,-8.75,-8.21,0,*52
1488092542.57,59364,7.63,73218.3,-2.81,-9.15,-8.33,0,*53
1488092543.82,59365,7.63,73216.3,-2.81,-9.37,-8.45,0,*53
1488092545.05,59366,7.63,73216.8,-2.81,-9.49,-8.33,0,*58
1488092546.29,59367,7.63,73218.5,-2.81,-9.53,-8.29,0,*59
1488092547.52,59368,7.63,73192.5,-2.81,-9.53,-8.29,0,*56
1488092548.76,59369,7.63,73224.5,-2.81,-9.53,-8.21,0,*5F
1488092549.99,59370,7.63,73216.0,-2.81,-9.71,-8.21,0,*57
1488092551.24,59371,7.63,73226.3,-2.79,-9.37,-7.91,0,*57
1488092552.46,59372,7.63,73210.3,-2.81,-10.35,-8.75,0,*6C
1488092553.67,59373,7.63,73216.0,-2.81,-10.31,-8.67,0,*6A
1488092554.9,59374,7.63,73214.3,-2.81,-10.23,-8.45,0,*6E
1488092556.11,59375,7.63,73224.3,-2.79,-9.89,-8.11,0,*51
1488092557.33,59376,7.63,73202.8,-2.81,-9.67,-7.83,0,*51
1488092558.58,59377,7.63,73208.3,-2.81,-9.79,-7.73,0,*50
1488092559.8,59378,7.63,73206.8,-2.79,-9.97,-7.61,0,*5B
1488092561.06,59379,7.63,73198.3,-2.81,-9.83,-7.35,0,*59
1488092562.28,59380,7.63,73202.8,-2.81,-9.67,-7.11,0,*53
1488092563.53,59381,7.63,73194.8,-2.81,-9.37,-6.69,0,*59
1488092564.77,59382,7.63,73194.8,-2.81,-8.71,-6.23,0,*57
1488092566.02,59383,7.63,73206.3,-2.81,-8.29,-5.93,0,*53
1488092567.29,59384,7.63,73186.3,-2.81,-7.95,-5.85,0,*5B
1488092568.53,59385,7.63,73190.8,-2.79,-7.43,-5.73,0,*5F
1488092569.76,59386,7.63,73198.5,-2.79,-7.23,-5.85,0,*53
1488092570.98,59387,7.63,73200.5,-2.81,-7.11,-6.01,0,*5B
1488092572.18,59388,7.63,73214.8,-2.79,-7.19,-6.01,0,*5B
1488092573.4,59389,7.63,73204.8,-2.81,-7.53,-6.55,0,*52
1488092574.6,59390,7.63,73188.3,-2.79,-7.49,-6.55,0,*56
1488092575.82,59391,7.63,73190.0,-2.81,-7.15,-6.35,0,*5F
1488092577.04,59392,7.63,73190.0,-2.79,-6.93,-6.39,0,*58
1488092578.28,59393,7.63,73170.3,-2.79,-7.31,-7.05,0,*5E
1488092579.52,59394,7.63,73168.5,-2.81,-7.49,-7.27,0,*51
1488092580.77,59395,7.63,73178.8,-2.81,-8.03,-7.83,0,*5F
1488092581.99,59396,7.63,73184.0,-2.79,-8.29,-7.99,0,*58
1488092583.23,59397,7.63,73194.0,-2.81,-8.45,-7.95,0,*58
1488092584.43,59398,7.63,73208.8,-2.79,-8.93,-8.17,0,*5E
1488092585.65,59399,7.63,73196.5,-2.79,-8.97,-7.99,0,*52
1488092586.9,59400,7.63,73208.0,-2.81,-9.37,-8.17,0,*50
1488092588.14,59401,7.63,73212.3,-2.83,-9.53,-7.99,0,*58
1488092589.41,59402,7.63,73214.3,-2.81,-9.41,-7.65,0,*59
1488092590.69,59403,7.63,73226.8,-2.81,-9.41,-7.61,0,*5C
1488092591.94,59404,7.63,73212.5,-2.83,-9.41,-7.43,0,*59
1488092593.16,59405,7.63,73202.8,-2.81,-9.23,-7.23,0,*58
1488092594.39,59406,7.63,73170.3,-2.81,-9.23,-7.23,0,*5B
1488092595.64,59407,7.63,73202.0,-2.81,-9.41,-7.23,0,*5E
1488092596.89,59408,7.63,73212.0,-2.81,-9.11,-6.55,0,*54
1488092598.11,59409,7.63,73194.5,-2.83,-8.45,-6.23,0,*56
1488092599.32,59410,7.63,73204.3,-2.81,-8.29,-6.01,0,*56
1488092600.56,59411,7.63,73208.5,-2.83,-7.65,-5.73,0,*54
1488092601.81,59412,7.63,73202.0,-2.83,-6.63,-5.03,0,*57
1488092603.06,59413,7.63,73178.0,-2.81,-6.47,-5.03,0,*52
1488092604.29,59414,7.63,73174.3,-2.79,-6.31,-4.85,0,*5C
1488092605.55,59415,7.63,73188.0,-2.75,-6.93,-5.55,0,*55
1488092606.8,59416,7.63,73212.5,-2.75,-6.93,-5.43,0,*51
1488092608.06,59417,7.63,73216.8,-2.75,-6.77,-5.31,0,*5F
1488092609.32,59418,7.63,73216.8,-2.75,-6.77,-5.15,0,*56
1488092610.6,59419,7.63,73216.8,-2.75,-6.93,-5.31,0,*5B
1488092611.86,59420,7.63,73206.3,-2.77,-6.51,-5.19,0,*57
1488092613.11,59421,7.63,73206.3,-2.77,-6.39,-5.19,0,*58
1488092614.36,59422,7.63,73216.8,-2.75,-6.39,-5.19,0,*59
1488092615.61,59423,7.63,73204.5,-2.77,-6.39,-5.23,0,*53
1488092616.88,59424,7.63,73212.0,-2.77,-6.27,-5.19,0,*52
1488092618.14,59425,7.63,73222.0,-2.77,-6.01,-5.19,0,*57
1488092619.39,59426,7.63,73216.5,-2.77,-5.97,-5.11,0,*50
1488092620.64,59427,7.63,73208.8,-2.75,-6.05,-5.19,0,*53
1488092621.9,59428,7.63,73198.5,-2.75,-5.97,-5.23,0,*5D
1488092623.15,59429,7.63,73192.8,-2.77,-6.19,-5.35,0,*5C
1488092624.37,59430,7.63,73210.8,-2.77,-6.13,-5.39,0,*52
1488092625.65,59431,7.63,73218.0,-2.77,-5.89,-5.23,0,*58
1488092626.93,59432,7.63,73216.8,-2.77,-5.77,-5.23,0,*5A
1488092628.21,59433,7.63,73228.3,-2.77,-5.77,-5.19,0,*52
1488092629.43,59434,7.63,73220.5,-2.79,-5.77,-5.35,0,*55
1488092630.69,59435,7.63,73248.0,-2.79,-5.65,-5.27,0,*54
1488092631.94,59436,7.63,73202.5,-2.79,-5.07,-4.81,0,*5E
1488092633.19,59437,7.63,73184.3,-2.77,-5.39,-5.11,0,*54
1488092634.44,59438,7.63,73182.3,-2.79,-5.61,-5.27,0,*5D
1488092635.7,59439,7.63,73188.8,-2.79,-5.85,-5.61,0,*54
1488092636.93,59440,7.63,73200.3,-2.79,-5.97,-5.61,0,*59
1488092638.18,59441,7.63,73198.3,-2.79,-6.19,-5.73,0,*5E
1488092639.42,59442,7.63,73214.5,-2.81,-6.31,-5.69,0,*5B
1488092640.65,59443,7.63,73220.0,-2.79,-6.51,-5.73,0,*50
1488092641.85,59444,7.63,73206.3,-2.79,-6.31,-5.39,0,*5F
1488092643.08,59445,7.63,73210.0,-2.79,-6.19,-5.39,0,*54
1488092644.27,59446,7.63,73208.3,-2.79,-6.13,-5.39,0,*5D
1488092645.52,59447,7.63,73186.3,-2.79,-6.19,-5.77,0,*5C
1488092646.72,59448,7.63,73190.5,-2.79,-6.55,-6.13,0,*5A
1488092647.94,59449,7.63,73188.0,-2.79,-6.69,-6.23,0,*57
1488092649.18,59450,7.63,73188.3,-2.79,-6.63,-5.89,0,*56
1488092650.38,59451,7.63,73180.3,-2.79,-6.89,-6.01,0,*50
1488092651.62,59452,7.63,73186.5,-2.81,-6.43,-5.69,0,*5F
1488092652.87,59453,7.63,73168.3,-2.81,-6.43,-5.65,0,*52
1488092654.09,59454,7.63,73168.0,-2.81,-6.43,-5.51,0,*52
1488092655.31,59455,7.63,73168.8,-2.81,-6.31,-5.43,0,*55
1488092656.56,59456,7.63,73184.0,-2.81,-6.01,-5.27,0,*57
1488092657.83,59457,7.63,73192.3,-2.81,-5.77,-5.15,0,*55
1488092659.11,59458,7.63,73198.5,-2.81,-5.89,-5.27,0,*5A
1488092660.35,59459,7.63,73176.0,-2.81,-5.89,-5.43,0,*59
1488092661.58,59460,7.63,73168.3,-2.81,-6.01,-5.55,0,*57
1488092662.82,59461,7.63,73176.0,-2.81,-5.89,-5.43,0,*52
1488092664.04,59462,7.63,73186.0,-2.83,-5.61,-5.35,0,*54
1488092665.26,59463,7.63,73184.8,-2.83,-5.43,-5.19,0,*5B
1488092666.49,59464,7.63,73182.0,-2.83,-5.47,-5.31,0,*52
1488092667.71,59465,7.63,73210.0,-2.85,-5.47,-5.35,0,*51
1488092668.93,59466,7.63,73198.5,-2.83,-5.61,-5.43,0,*51
1488092670.15,59467,7.63,73204.8,-2.83,-5.73,-5.47,0,*57
1488092671.4,59468,7.63,73204.5,-2.83,-5.93,-5.69,0,*5A
1488092672.62,59469,7.63,73212.0,-2.83,-5.73,-5.55,0,*5A
1488092673.86,59470,7.63,73214.5,-2.83,-5.73,-5.61,0,*55
1488092675.08,59471,7.63,73224.0,-2.83,-5.61,-5.43,0,*57
1488092676.36,59472,7.63,73238.0,-2.81,-5.27,-5.23,0,*52
1488092677.63,59473,7.63,73224.0,-2.81,-5.31,-5.23,0,*54
1488092678.86,59474,7.63,73184.3,-2.81,-5.55,-5.43,0,*57
1488092680.1,59475,7.63,73212.0,-2.81,-5.69,-5.43,0,*59
1488092681.35,59476,7.63,73202.5,-2.81,-5.51,-5.27,0,*53
1488092682.61,59477,7.63,73208.8,-2.81,-5.55,-5.31,0,*51
1488092683.86,59478,7.63,73216.3,-2.81,-5.51,-5.23,0,*59
1488092685.12,59479,7.63,73212.8,-2.81,-5.55,-5.27,0,*58
1488092686.37,59480,7.63,73192.5,-2.81,-5.55,-5.23,0,*5A
1488092687.65,59481,7.63,73206.5,-2.81,-5.65,-5.23,0,*58
1488092688.9,59482,7.63,73236.3,-2.81,-5.39,-5.11,0,*53
1488092690.14,59483,7.63,73228.5,-2.81,-5.39,-5.15,0,*56
1488092691.4,59484,7.63,73216.8,-2.79,-5.27,-5.07,0,*5A
1488092692.63,59485,7.63,73212.0,-2.79,-5.47,-5.23,0,*5B
1488092693.86,59486,7.63,73198.0,-2.79,-5.85,-5.35,0,*51
1488092695.09,59487,7.63,73228.3,-2.79,-5.85,-5.35,0,*50
1488092696.34,59488,7.63,73222.0,-2.79,-5.77,-5.23,0,*55
1488092697.62,59489,7.63,73230.8,-2.77,-5.77,-5.19,0,*53
1488092698.88,59490,7.63,73214.0,-2.79,-5.85,-5.27,0,*55
1488092700.11,59491,7.63,73210.8,-2.79,-5.85,-5.47,0,*52
1488092701.35,59492,7.63,73212.8,-2.81,-6.05,-5.61,0,*59
1488092702.59,59493,7.63,73228.8,-2.79,-6.27,-5.77,0,*58
1488092703.84,59494,7.63,73234.0,-2.81,-6.35,-5.81,0,*52
1488092705.07,59495,7.63,73218.0,-2.79,-6.55,-5.89,0,*5A
1488092706.3,59496,7.63,73216.3,-2.79,-6.55,-5.85,0,*55
1488092707.52,59497,7.63,73232.8,-2.79,-6.55,-5.77,0,*59
1488092708.75,59498,7.63,73224.8,-2.79,-6.55,-5.65,0,*55
1488092709.94,59499,7.63,73222.8,-2.79,-6.69,-5.47,0,*5B
1488092711.16,59500,7.63,73210.3,-2.77,-6.69,-5.39,0,*5D
1488092712.42,59501,7.63,73232.3,-2.77,-6.51,-5.23,0,*5C
1488092713.67,59502,7.63,73232.3,-2.77,-6.43,-5.11,0,*5D
1488092714.94,59503,7.63,73224.5,-2.77,-6.19,-4.93,0,*58
1488092716.19,59504,7.63,73228.5,-2.77,-5.97,-4.69,0,*5F
1488092717.47,59505,7.63,73236.3,-2.77,-5.77,-4.69,0,*50
1488092718.69,59506,7.63,73240.5,-2.77,-5.39,-4.45,0,*57
1488092719.93,59507,7.63,73218.8,-2.77,-5.11,-4.29,0,*56
1488092721.17,59508,7.63,73236.8,-2.77,-4.93,-4.33,0,*59
1488092722.41,59509,7.63,73246.5,-2.77,-4.81,-4.41,0,*5E
1488092723.65,59510,7.63,73252.8,-2.77,-4.69,-4.61,0,*52
1488092724.89,59511,7.63,73242.3,-2.77,-4.99,-5.11,0,*5A
1488092726.14,59512,7.63,73234.3,-2.75,-5.43,-5.69,0,*52
1488092727.43,59513,7.63,73224.0,-2.75,-5.85,-5.93,0,*5C
1488092728.67,59514,7.63,73224.5,-2.75,-6.27,-6.13,0,*5B
1488092729.92,59515,7.63,73232.5,-2.77,-6.13,-5.89,0,*5F
1488092731.15,59516,7.63,73234.8,-2.77,-6.51,-6.01,0,*59
1488092732.37,59517,7.63,73222.3,-2.77,-6.55,-6.01,0,*5C
1488092733.62,59518,7.63,73218.8,-2.75,-6.51,-5.81,0,*5E
1488092734.87,59519,7.63,73216.0,-2.77,-6.19,-5.47,0,*5B
1488092736.1,59520,7.63,73208.8,-2.77,-6.09,-5.39,0,*59
1488092737.38,59521,7.63,73210.8,-2.77,-6.19,-5.61,0,*54
1488092738.61,59522,7.63,73208.5,-2.75,-6.09,-5.55,0,*53
1488092739.84,59523,7.63,73202.0,-2.75,-5.97,-5.35,0,*50
1488092741.07,59524,7.63,73200.8,-2.75,-5.97,-5.43,0,*56
1488092742.36,59525,7.63,73202.0,-2.75,-5.85,-5.23,0,*52
1488092743.61,59526,7.63,73230.3,-2.75,-5.93,-5.35,0,*51
1488092744.9,59527,7.63,73222.8,-2.75,-5.85,-5.31,0,*53
1488092746.09,59528,7.63,73198.0,-2.73,-5.97,-5.43,0,*5C
1488092747.32,59529,7.63,73208.5,-2.73,-6.13,-5.61,0,*52
1488092748.55,59530,7.63,73204.0,-2.73,-5.85,-5.55,0,*51
1488092749.77,59531,7.63,73204.3,-2.73,-5.61,-5.47,0,*59
1488092751.0,59532,7.63,73206.5,-2.75,-5.47,-5.43,0,*5C
1488092752.23,59533,7.63,73214.5,-2.73,-5.55,-5.61,0,*58
1488092753.48,59534,7.63,73162.8,-2.73,-5.81,-5.81,0,*58
1488092754.73,59535,7.63,73192.8,-2.73,-5.81,-5.81,0,*59
1488092755.98,59536,7.63,73148.8,-2.73,-6.23,-6.27,0,*5E
1488092757.18,59537,7.63,73158.8,-2.73,-6.51,-6.47,0,*5C
1488092758.38,59538,7.63,73156.0,-2.73,-6.59,-6.59,0,*54
1488092759.59,59539,7.63,73154.3,-2.69,-6.59,-6.59,0,*5E
1488092760.79,59540,7.63,73158.3,-2.73,-6.77,-6.77,0,*5B
1488092762.01,59541,7.63,73168.5,-2.75,-6.85,-6.77,0,*51
1488092763.26,59542,7.63,73172.8,-2.75,-7.05,-6.85,0,*56
1488092764.49,59543,7.63,73178.0,-2.75,-7.15,-6.77,0,*5B
1488092765.74,59544,7.63,73174.0,-2.77,-7.43,-6.89,0,*5C
1488092766.96,59545,7.63,73172.8,-2.75,-7.53,-6.77,0,*5F
1488092768.21,59546,7.63,73178.3,-2.75,-7.53,-6.63,0,*59
1488092769.47,59547,7.63,73168.5,-2.75,-7.43,-6.59,0,*50
1488092770.73,59548,7.63,73178.3,-2.75,-7.57,-6.59,0,*5A
1488092771.98,59549,7.63,73184.8,-2.77,-7.57,-6.55,0,*55
1488092773.23,59550,7.63,73200.3,-2.75,-7.43,-6.47,0,*59
1488092774.46,59551,7.63,73186.0,-2.77,-7.23,-6.43,0,*58
1488092775.7,59552,7.63,73178.3,-2.77,-6.93,-6.01,0,*57
1488092776.93,59553,7.63,73190.5,-2.75,-6.85,-6.09,0,*5B
1488092778.17,59554,7.63,73206.8,-2.77,-6.89,-6.27,0,*5E
1488092779.39,59555,7.63,73188.8,-2.77,-6.69,-5.97,0,*59
1488092780.61,59556,7.63,73204.5,-2.77,-6.55,-6.01,0,*59
1488092781.86,59557,7.63,73200.3,-2.77,-6.43,-5.89,0,*5C
1488092783.12,59558,7.63,73198.5,-2.75,-6.51,-5.85,0,*5E
1488092784.36,59559,7.63,73198.5,-2.75,-6.63,-6.09,0,*59
1488092785.61,59560,7.63,73196.3,-2.77,-6.77,-6.19,0,*55
1488092786.84,59561,7.63,73192.8,-2.75,-6.89,-6.09,0,*56
1488092788.06,59562,7.63,73188.0,-2.77,-6.89,-6.13,0,*5C
1488092789.28,59563,7.63,73196.5,-2.75,-6.85,-5.97,0,*5C
1488092790.53,59564,7.63,73190.3,-2.77,-6.97,-6.39,0,*5D
1488092791.78,59565,7.63,73194.0,-2.75,-7.31,-6.47,0,*5A
1488092793.05,59566,7.63,73196.5,-2.75,-7.39,-6.27,0,*57
1488092794.27,59567,7.63,73200.8,-2.75,-7.53,-6.13,0,*5D
1488092795.54,59568,7.63,73198.5,-2.77,-7.35,-5.89,0,*50
1488092796.82,59569,7.63,73200.8,-2.75,-7.05,-5.81,0,*58
1488092798.1,59570,7.63,73184.3,-2.75,-7.01,-5.81,0,*54
1488092799.35,59571,7.63,73184.0,-2.73,-7.01,-5.85,0,*57
1488092800.63,59572,7.63,73184.3,-2.75,-7.05,-5.81,0,*52
1488092801.88,59573,7.63,73188.5,-2.73,-7.01,-5.69,0,*57
1488092803.11,59574,7.63,73192.0,-2.75,-6.85,-5.55,0,*54
1488092804.33,59575,7.63,73204.3,-2.77,-6.55,-5.35,0,*5C
1488092805.55,59576,7.63,73182.8,-2.77,-6.43,-5.35,0,*58
1488092806.78,59577,7.63,73166.8,-2.77,-6.43,-5.35,0,*59
1488092808.0,59578,7.63,73178.5,-2.75,-6.47,-5.43,0,*51
1488092809.22,59579,7.63,73180.3,-2.77,-6.31,-5.39,0,*5E
1488092810.48,59580,7.63,73186.8,-2.77,-6.13,-5.23,0,*53
1488092811.75,59581,7.63,73198.0,-2.77,-5.89,-5.19,0,*5B
1488092813.03,59582,7.63,73180.5,-2.77,-5.65,-5.23,0,*53
1488092814.31,59583,7.63,73188.0,-2.77,-5.65,-5.27,0,*56
1488092815.59,59584,7.63,73184.0,-2.77,-5.61,-5.23,0,*51
1488092816.84,59585,7.63,73206.3,-2.77,-5.77,-5.39,0,*5C
1488092818.08,59586,7.63,73182.3,-2.77,-5.61,-5.35,0,*54
1488092819.33,59587,7.63,73184.8,-2.77,-5.61,-5.47,0,*50
1488092820.59,59588,7.63,73196.0,-2.77,-5.73,-5.65,0,*5C
1488092821.84,59589,7.63,73188.0,-2.77,-5.85,-5.97,0,*59
1488092823.07,59590,7.63,73176.0,-2.79,-5.85,-6.13,0,*50
1488092824.29,59591,7.63,73158.3,-2.79,-5.97,-6.27,0,*55
1488092825.5,59592,7.63,73180.3,-2.79,-6.09,-6.31,0,*55
1488092826.71,59593,7.63,73184.3,-2.81,-6.05,-6.43,0,*5A
1488092827.92,59594,7.63,73192.0,-2.79,-6.31,-6.51,0,*5E
1488092829.12,59595,7.63,73196.0,-2.79,-6.55,-6.89,0,*58
1488092830.34,59596,7.63,73172.8,-2.79,-6.81,-6.97,0,*5D
1488092831.59,59597,7.63,73176.8,-2.81,-7.27,-7.23,0,*58
1488092832.83,59598,7.63,73194.8,-2.79,-7.77,-7.35,0,*52
1488092834.06,59599,7.63,73206.5,-2.79,-7.77,-7.11,0,*55
1488092835.26,59600,7.63,73208.8,-2.79,-8.17,-7.23,0,*5E
1488092836.47,59601,7.63,73188.5,-2.79,-8.41,-7.23,0,*5C
1488092837.71,59602,7.63,73188.0,-2.81,-8.59,-6.97,0,*5F
1488092838.9,59603,7.63,73194.3,-2.79,-8.29,-6.69,0,*5F
1488092840.12,59604,7.63,73204.8,-2.81,-8.29,-6.59,0,*5C
1488092841.34,59605,7.63,73196.3,-2.79,-8.17,-6.63,0,*5E
1488092842.57,59606,7.63,73180.3,-2.79,-8.03,-6.51,0,*59
1488092843.81,59607,7.63,73170.3,-2.81,-8.07,-6.43,0,*58
1488092845.06,59608,7.63,73174.0,-2.79,-7.77,-6.27,0,*5A
1488092846.33,59609,7.63,73196.0,-2.81,-7.65,-6.19,0,*52
1488092847.6,59610,7.63,73204.8,-2.81,-7.35,-5.93,0,*5E
1488092848.86,59611,7.63,73198.3,-2.79,-6.97,-5.85,0,*56
1488092850.11,59612,7.63,73190.3,-2.81,-6.81,-5.89,0,*59
1488092851.35,59613,7.63,73184.8,-2.81,-6.69,-5.69,0,*50
1488092852.57,59614,7.63,73200.3,-2.79,-6.55,-5.77,0,*50
1488092853.79,59615,7.63,73190.8,-2.83,-6.59,-5.81,0,*51
1488092855.02,59616,7.63,73194.0,-2.83,-6.51,-5.85,0,*5E
1488092856.24,59617,7.63,73192.0,-2.83,-6.47,-5.81,0,*5C
1488092857.49,59618,7.63,73214.5,-2.81,-6.43,-5.69,0,*53
1488092858.72,59619,7.63,73200.5,-2.81,-6.35,-5.55,0,*5C
1488092859.94,59620,7.63,73186.8,-2.81,-6.35,-5.51,0,*52
1488092861.16,59621,7.63,73192.5,-2.81,-6.43,-5.43,0,*51
1488092862.38,59622,7.63,73208.3,-2.81,-6.31,-5.39,0,*5A
1488092863.64,59623,7.63,73202.3,-2.81,-6.31,-5.23,0,*50
1488092864.88,59624,7.63,73208.8,-2.81,-6.01,-5.11,0,*55
1488092866.13,59625,7.63,73196.5,-2.81,-5.55,-4.77,0,*57
1488092867.38,59626,7.63,73198.8,-2.79,-5.61,-4.93,0,*5E
1488092868.61,59627,7.63,73194.8,-2.79,-6.01,-5.23,0,*50
1488092869.81,59628,7.63,73216.3,-2.79,-6.13,-5.35,0,*5B
1488092871.06,59629,7.63,73222.5,-2.79,-6.27,-5.27,0,*5E
1488092872.29,59630,7.63,73202.0,-2.79,-6.39,-5.27,0,*59
1488092873.54,59631,7.63,73192.0,-2.79,-6.27,-5.19,0,*5A
1488092874.77,59632,7.63,73198.3,-2.79,-6.13,-5.19,0,*5E
1488092876.01,59633,7.63,73212.8,-2.79,-6.27,-5.11,0,*50
1488092877.26,59634,7.63,73218.0,-2.79,-6.27,-5.07,0,*50
1488092878.53,59635,7.63,73218.0,-2.81,-6.23,-4.89,0,*55
1488092879.78,59636,7.63,73204.5,-2.81,-6.05,-4.89,0,*52
1488092881.03,59637,7.63,73220.3,-2.79,-5.77,-4.81,0,*5A
1488092882.26,59638,7.63,73218.0,-2.79,-5.55,-4.85,0,*51
1488092883.54,59639,7.63,73196.3,-2.81,-5.23,-4.89,0,*5A
1488092884.73,59640,7.63,73192.8,-2.79,-5.35,-4.99,0,*55
1488092885.98,59641,7.63,73192.8,-2.79,-5.27,-5.11,0,*56
1488092887.26,59642,7.63,73174.3,-2.81,-5.23,-5.11,0,*56
1488092888.54,59643,7.63,73156.8,-2.81,-5.31,-5.27,0,*51
1488092889.78,59644,7.63,73178.0,-2.81,-5.39,-5.31,0,*59
1488092891.03,59645,7.63,73188.8,-2.81,-5.39,-5.23,0,*5B
1488092892.28,59646,7.63,73184.0,-2.81,-5.43,-5.23,0,*55
1488092893.53,59647,7.63,73206.5,-2.81,-5.39,-5.11,0,*58
1488092894.77,59648,7.63,73214.0,-2.81,-5.43,-5.15,0,*5E
1488092896.01,59649,7.63,73214.5,-2.81,-5.43,-5.23,0,*5A
1488092897.27,59650,7.63,73210.3,-2.83,-5.69,-5.31,0,*5B
1488092898.53,59651,7.63,73222.8,-2.85,-5.55,-5.31,0,*53
1488092899.75,59652,7.63,73230.3,-2.83,-5.47,-5.31,0,*55
1488092901.0,59653,7.63,73216.5,-2.83,-5.81,-5.61,0,*5B
1488092902.25,59654,7.63,73228.8,-2.83,-5.85,-5.81,0,*56
1488092903.5,59655,7.63,73220.3,-2.83,-5.85,-5.69,0,*51
1488092904.73,59656,7.63,73208.3,-2.83,-5.97,-5.69,0,*51
1488092905.95,59657,7.63,73198.5,-2.83,-6.09,-5.81,0,*52
1488092907.2,59658,7.63,73188.3,-2.83,-6.19,-5.81,0,*5C
1488092908.45,59659,7.63,73214.3,-2.83,-6.23,-5.81,0,*54
1488092909.67,59660,7.63,73234.0,-2.83,-6.09,-5.61,0,*58
1488092910.91,59661,7.63,73230.8,-2.85,-6.09,-5.55,0,*58
1488092912.13,59662,7.63,73218.5,-2.81,-6.01,-5.43,0,*50
1488092913.38,59663,7.63,73222.0,-2.83,-6.19,-5.61,0,*5A
1488092914.6,59664,7.63,73230.0,-2.83,-6.19,-5.47,0,*59
1488092915.83,59665,7.63,73232.8,-2.83,-6.23,-5.55,0,*52
1488092917.07,59666,7.63,73230.5,-2.83,-6.27,-5.61,0,*52
1488092918.3,59667,7.63,73238.5,-2.81,-6.13,-5.51,0,*55
1488092919.56,59668,7.63,73226.5,-2.85,-6.19,-5.55,0,*50